Location: Latina
(41.4670°N, 12.8670°E)
Time: 18:32:49
(UTC+02:00)

ISS - Pass Details

Date: 13 May 2021
Orbit: 417 x 422 km, 51.6° (Epoch: 18 June)

Event Time Altitude Azimuth Distance (km) Brightness Sun altitude
Rises 05:14:22 0° 304° (NW) 2,375 -0.2 -6.9°
Reaches altitude 10° 05:16:29 10° 303° (WNW) 1,508 -1.2 -6.6°
Maximum altitude 05:19:52 77° 218° (SW) 436 -3.8 -6.0°
Drops below altitude 10° 05:23:14 10° 131° (SE) 1,501 -0.7 -5.5°
Sets 05:25:19 0° 130° (SE) 2,363 0.3 -5.2°
